Temp
53 52 51 51 51 50 50 50 49 49 49 50 50 49 48 47 47 46 44 46 44 42 43 43 44 45 46 47 51 49 48 46 42 45 47 49 47 49 51 50 51 50 54
53 52 52 51 51 50 50 49 50 49 50 50 50 50 49 49 46 46 45 45 43 42 43 43 45 50 45 48 50 48 47 47 43 39 43 46 46 48 48 46 49 53 53
53 52 51 50 50 50 49 50 50 50 50 50 50 49 50 49 48 47 47 45 44 43 43 43 44 45 43 46 45 47 47 48 45 41 42 48 44 47 47 46 47 49 54
53 51 50 50 51 50 50 50 50 50 49 49 50 50 50 49 49 48 47 45 43 44 44 45 49 49 48 47 48 46 47 45 45 44 45 45 44 47 44 43 44 48 50
53 51 50 51 51 50 50 50 50 49 50 50 50 50 49 49 51 47 47 46 42 42 44 48 50 52 55 52 47 45 45 45 45 44 44 40 43 43 43 42 42 44 49
52 52 52 52 52 51 50 50 49 49 49 49 49 49 48 50 51 51 51 46 46 42 42 45 47 51 50 52 51 50 48 44 43 43 39 37 38 44 46 43 41 41 44
52 53 53 52 53 52 51 50 49 48 47 47 47 47 47 46 49 48 50 47 41 41 41 42 44 48 49 48 47 47 48 49 48 43 41 41 38 43 45 42 43 42 44
52 52 54 53 53 51 50 48 46 45 46 46 46 47 45 47 47 47 47 42 41 41 41 40 39 43 45 45 44 44 44 45 45 44 44 44 40 46 46 45 45 44 47
53 53 54 53 52 51 49 47 46 45 45 45 46 45 44 43 46 46 45 41 40 40 42 41 41 44 45 44 41 41 43 44 48 48 47 45 45 45 46 46 44 45 43
53 53 54 52 51 49 47 47 45 45 46 47 47 44 47 43 45 46 45 40 37 38 39 40 45 45 43 43 42 40 39 39 42 40 44 46 46 46 46 44 43 42 44
54 54 53 52 50 49 47 45 46 45 45 44 44 43 43 43 43 45 44 39 38 38 39 44 45 43 42 41 42 40 37 42 43 43 43 43 40 42 43 43 43 42 44
52 52 51 50 51 52 47 46 46 44 44 42 41 41 43 43 45 43 43 43 43 38 40 44 43 41 41 41 42 41 42 42 41 41 41 41 41 41 42 44 42 41 45
51 49 49 49 50 49 46 46 45 42 41 42 41 40 40 42 40 43 42 42 43 40 44 43 42 41 41 41 42 41 42 40 38 37 39 40 41 43 44 43 41 41 46
49 48 47 47 46 47 47 45 43 41 41 42 41 40 39 39 39 44 41 37 40 43 43 42 43 42 42 42 41 41 41 41 41 40 40 41 42 42 42 44 39 42 44
49 48 47 46 45 45 46 44 44 42 42 41 40 41 39 38 43 43 42 43 40 41 41 42 41 40 39 39 39 39 40 39 39 39 39 39 40 41 41 42 43 42 42
47 47 46 45 44 44 44 45 42 43 43 43 44 41 42 42 42 41 41 39 39 39 40 39 38 38 37 38 37 37 38 38 38 39 39 39 38 39 40 41 42 42 41
47 47 45 45 44 44 44 43 41 43 44 44 41 40 41 41 41 40 40 39 38 38 39 40 38 38 38 38 37 37 36 37 38 38 38 39 39 39 39 40 40 40 40
48 47 45 44 44 44 43 43 43 42 41 41 42 42 42 42 40 40 41 40 43 42 40 39 39 39 38 37 37 36 36 36 36 36 37 38 39 39 39 39 39 39 39
48 47 46 44 44 44 44 43 42 41 40 39 39 40 40 41 41 41 41 43 42 41 40 40 40 39 38 37 36 36 36 35 35 35 35 37 39 39 39 38 38 36 37
47 45 43 44 46 45 44 43 42 41 39 38 38 37 38 41 42 43 43 43 42 41 40 40 40 39 38 36 34 35 34 34 34 34 34 36 38 39 38 38 38 38 39
45 45 39 46 47 44 44 44 42 40 39 38 38 39 34 41 42 41 41 42 41 40 40 40 39 38 38 36 34 34 34 34 34 33 34 35 36 37 38 38 38 39 39
45 47 47 47 47 45 44 44 43 40 39 38 38 39 36 42 42 42 42 41 41 41 41 40 39 38 37 35 33 33 33 33 34 33 34 34 35 37 38 38 38 39 40
47 48 47 46 45 42 45 44 41 39 39 39 38 38 39 42 42 43 42 42 41 41 41 39 38 35 36 35 35 34 33 33 34 35 33 34 34 36 37 37 38 39 40
48 48 47 46 46 44 44 44 41 39 40 40 38 38 38 43 43 42 42 41 41 40 39 38 36 34 34 34 34 34 36 37 35 34 34 34 34 35 37 37 38 40 40
47 46 45 44 44 43 44 42 40 40 40 40 39 38 39 43 42 42 41 40 39 38 38 37 36 35 35 35 36 37 34 32 33 33 34 35 35 36 36 38 39 39 41
46 47 45 44 43 43 42 41 40 40 39 39 38 43 41 42 41 40 39 38 38 37 37 36 35 36 36 37 37 33 33 33 33 33 35 35 36 36 38 38 40 40 41
MSLP
1021.08 1021.30 1021.30 1021.66 1021.52 1021.36 1021.29 1021.23 1021.14 1020.90 1020.65 1020.29 1019.98 1019.92 1019.75 1019.56 1019.53 1019.43 1019.37 1019.14 1018.88 1018.56 1018.09 1017.66 1017.13 1016.53 1016.02 1015.48 1015.07 1014.71 1014.58 1014.39 1014.19 1013.63 1013.15 1012.18 1011.64 1011.02 1010.13 1009.40 1008.75 1008.17 1007.21
1020.93 1021.07 1021.23 1021.42 1021.39 1021.25 1021.13 1021.04 1020.73 1020.56 1020.11 1019.91 1019.72 1019.71 1019.61 1019.48 1019.36 1019.31 1019.20 1018.98 1018.73 1018.50 1017.99 1017.42 1016.83 1016.26 1015.88 1015.35 1014.90 1014.57 1014.39 1014.16 1014.08 1013.61 1012.84 1012.04 1011.41 1010.65 1010.06 1009.41 1008.62 1007.83 1006.97
1020.66 1020.89 1021.19 1021.29 1021.16 1021.00 1020.86 1020.61 1020.34 1020.09 1019.85 1019.60 1019.52 1019.62 1019.53 1019.28 1019.12 1018.97 1018.88 1018.64 1018.44 1018.20 1017.68 1017.24 1016.73 1016.19 1015.77 1015.19 1014.80 1014.51 1014.33 1014.03 1013.78 1013.48 1012.68 1011.98 1011.23 1010.45 1009.91 1009.17 1008.49 1007.65 1006.72
1020.38 1020.92 1021.16 1021.03 1020.73 1020.49 1020.29 1020.14 1019.94 1019.69 1019.63 1019.50 1019.35 1019.33 1019.28 1019.04 1018.75 1018.77 1018.45 1018.47 1018.29 1017.86 1017.32 1016.83 1016.25 1015.72 1015.22 1014.77 1014.52 1014.38 1014.10 1013.83 1013.47 1012.99 1012.29 1011.75 1011.17 1010.30 1009.99 1009.49 1008.53 1007.63 1006.66
1020.42 1020.73 1020.78 1020.48 1020.24 1020.06 1019.98 1019.82 1019.63 1019.65 1019.63 1019.40 1019.27 1019.13 1019.01 1018.78 1018.39 1018.13 1018.23 1018.31 1018.16 1017.70 1017.12 1016.50 1015.86 1015.30 1014.78 1014.41 1014.17 1014.03 1013.84 1013.51 1013.09 1012.70 1012.20 1011.87 1011.20 1010.58 1010.18 1009.55 1009.02 1007.83 1006.72
1020.29 1020.31 1020.20 1020.12 1020.00 1019.95 1019.78 1019.71 1019.64 1019.48 1019.31 1019.17 1019.02 1018.93 1018.71 1018.45 1017.90 1017.71 1017.99 1018.09 1017.93 1017.60 1017.09 1016.37 1015.74 1015.19 1014.73 1014.22 1013.82 1013.75 1013.55 1013.12 1012.72 1012.42 1012.20 1011.72 1011.27 1010.66 1010.07 1009.53 1009.01 1008.18 1006.78
1020.00 1020.02 1020.03 1019.88 1019.94 1019.84 1019.77 1019.64 1019.55 1019.41 1019.22 1019.02 1018.77 1018.52 1018.25 1017.87 1017.60 1017.57 1017.74 1017.93 1017.75 1017.38 1016.91 1016.39 1015.82 1015.20 1014.62 1014.20 1013.96 1013.68 1013.17 1012.60 1012.26 1011.99 1011.67 1011.31 1011.09 1010.48 1009.94 1009.12 1008.49 1008.11 1007.30
1020.01 1020.02 1019.96 1019.96 1019.91 1019.76 1019.69 1019.72 1019.59 1019.36 1019.24 1018.99 1018.53 1018.26 1018.14 1017.71 1017.52 1017.60 1017.75 1017.78 1017.56 1017.21 1016.72 1016.21 1015.76 1015.09 1014.54 1014.23 1013.92 1013.41 1012.85 1012.34 1011.91 1011.52 1011.17 1011.01 1010.69 1010.09 1009.59 1008.74 1008.08 1007.63 1006.95
1019.95 1019.99 1020.00 1019.88 1019.87 1019.71 1019.78 1019.67 1019.34 1019.29 1019.13 1018.82 1018.50 1018.22 1018.07 1018.07 1017.90 1017.85 1017.75 1017.63 1017.47 1017.12 1016.53 1015.91 1015.41 1014.82 1014.36 1013.92 1013.61 1013.12 1012.61 1011.99 1011.50 1011.11 1010.72 1010.34 1009.94 1009.63 1009.32 1008.58 1007.90 1007.35 1007.02
1019.95 1019.92 1019.73 1019.72 1019.62 1019.71 1019.57 1019.38 1019.17 1019.01 1018.85 1018.66 1018.45 1018.38 1018.16 1018.15 1018.12 1017.99 1017.76 1017.50 1017.49 1017.11 1016.31 1015.55 1015.10 1014.70 1014.25 1013.58 1013.23 1012.80 1012.43 1011.89 1011.36 1010.91 1010.36 1009.91 1009.66 1009.34 1008.95 1008.76 1008.45 1007.94 1007.23
1019.64 1019.56 1019.58 1019.46 1019.42 1019.32 1019.30 1019.15 1018.97 1018.82 1018.60 1018.80 1018.72 1018.61 1018.28 1018.10 1017.99 1017.87 1017.71 1017.44 1017.35 1016.93 1016.14 1015.21 1014.87 1014.49 1014.03 1013.40 1012.79 1012.46 1012.14 1011.60 1011.06 1010.68 1010.31 1009.93 1009.62 1009.19 1008.77 1008.40 1008.32 1008.16 1007.38
1019.59 1019.63 1019.57 1019.39 1019.25 1019.16 1019.25 1018.96 1018.66 1018.73 1018.78 1018.81 1018.97 1018.69 1018.31 1017.98 1017.79 1017.63 1017.37 1017.08 1016.80 1016.69 1015.94 1015.14 1014.73 1014.27 1013.81 1013.28 1012.71 1012.29 1011.75 1011.29 1010.96 1010.60 1010.26 1009.91 1009.62 1009.23 1008.78 1008.32 1007.90 1007.49 1007.05
1019.59 1019.69 1019.67 1019.35 1019.16 1019.16 1019.25 1019.03 1018.66 1018.69 1018.59 1018.71 1018.85 1018.68 1018.35 1017.88 1017.71 1017.35 1017.08 1016.86 1016.53 1016.29 1015.57 1014.90 1014.40 1013.97 1013.54 1013.07 1012.59 1012.13 1011.63 1011.20 1010.92 1010.59 1010.18 1009.87 1009.56 1009.13 1008.66 1008.20 1007.66 1007.15 1006.45
1019.65 1019.70 1019.60 1019.52 1019.43 1019.03 1018.73 1018.66 1018.84 1018.65 1018.61 1018.74 1018.78 1018.69 1018.21 1017.85 1017.61 1017.11 1016.73 1016.44 1016.16 1015.79 1015.08 1014.50 1014.08 1013.67 1013.26 1012.87 1012.37 1011.96 1011.60 1011.25 1010.85 1010.50 1010.16 1009.74 1009.35 1008.98 1008.60 1008.22 1007.89 1007.24 1006.63
1019.72 1019.75 1019.63 1019.45 1019.38 1019.13 1018.73 1018.78 1018.83 1018.67 1018.58 1018.59 1018.59 1018.37 1018.07 1017.80 1017.22 1016.79 1016.46 1016.11 1015.80 1015.43 1014.86 1014.31 1013.81 1013.33 1012.85 1012.46 1012.09 1011.72 1011.38 1011.07 1010.71 1010.40 1010.09 1009.74 1009.37 1009.01 1008.61 1008.30 1008.00 1007.51 1007.14
1019.74 1019.72 1019.59 1019.44 1019.31 1019.17 1018.91 1018.65 1018.61 1018.53 1018.46 1018.30 1018.04 1017.96 1017.81 1017.51 1016.94 1016.39 1015.83 1015.50 1015.23 1014.93 1014.58 1014.11 1013.59 1013.11 1012.66 1012.21 1011.83 1011.46 1011.20 1010.85 1010.55 1010.32 1010.03 1009.73 1009.41 1009.12 1008.82 1008.46 1008.19 1007.91 1007.63
1019.53 1019.52 1019.46 1019.31 1019.21 1019.10 1018.95 1018.80 1019.07 1018.72 1018.38 1018.14 1017.87 1017.71 1017.73 1017.30 1016.58 1015.93 1015.30 1015.01 1014.72 1014.43 1014.27 1013.80 1013.32 1012.74 1012.25 1011.90 1011.62 1011.26 1010.95 1010.77 1010.51 1010.12 1009.92 1009.69 1009.47 1009.13 1008.83 1008.61 1008.44 1008.18 1007.89
1019.32 1019.20 1019.23 1019.18 1019.21 1018.95 1018.83 1018.85 1018.83 1018.90 1018.81 1018.40 1018.02 1017.93 1017.64 1017.04 1016.29 1015.72 1015.22 1014.68 1014.29 1013.90 1013.83 1013.46 1012.88 1012.34 1011.90 1011.63 1011.34 1011.00 1010.65 1010.41 1010.25 1010.05 1009.74 1009.53 1009.29 1009.07 1008.82 1008.68 1008.60 1008.47 1008.21
1019.35 1019.20 1018.96 1018.93 1018.78 1018.75 1018.81 1018.92 1018.83 1018.79 1018.70 1018.63 1018.40 1017.89 1017.35 1016.79 1016.19 1015.70 1015.19 1014.70 1014.13 1013.70 1013.45 1012.97 1012.42 1011.89 1011.55 1011.25 1010.88 1010.56 1010.29 1010.10 1009.95 1009.77 1009.55 1009.27 1009.06 1008.90 1008.79 1008.77 1008.69 1008.57 1008.31
1019.17 1018.91 1018.80 1018.69 1018.48 1018.67 1018.83 1018.82 1018.77 1018.71 1018.69 1018.71 1018.39 1017.87 1017.23 1016.74 1016.12 1015.54 1014.98 1014.45 1013.98 1013.60 1013.15 1012.49 1011.86 1011.43 1011.09 1010.84 1010.58 1010.25 1009.87 1009.62 1009.45 1009.31 1009.19 1009.09 1008.91 1008.78 1008.79 1008.79 1008.72 1008.62 1008.42
1019.33 1019.05 1018.79 1018.56 1018.63 1018.69 1018.71 1018.66 1018.57 1018.60 1018.77 1018.80 1018.29 1017.62 1017.21 1016.96 1016.36 1015.71 1014.98 1014.30 1013.86 1013.44 1012.75 1012.01 1011.41 1011.03 1010.63 1010.35 1010.17 1009.80 1009.41 1009.05 1008.89 1008.81 1008.80 1008.80 1008.73 1008.70 1008.77 1008.77 1008.73 1008.60 1008.42
1019.23 1019.04 1018.84 1018.72 1018.68 1018.54 1018.61 1018.47 1018.48 1018.56 1018.80 1018.72 1018.23 1017.68 1017.11 1016.72 1016.24 1015.54 1014.87 1014.27 1013.75 1013.16 1012.40 1011.75 1011.14 1010.71 1010.21 1009.95 1009.69 1009.29 1008.87 1008.51 1008.29 1008.32 1008.37 1008.50 1008.57 1008.56 1008.66 1008.70 1008.70 1008.54 1008.26
1019.13 1019.15 1019.01 1018.88 1018.85 1018.76 1018.58 1018.59 1018.83 1018.93 1018.94 1018.72 1018.33 1017.82 1017.27 1016.62 1016.04 1015.36 1014.75 1014.25 1013.59 1012.76 1011.97 1011.54 1011.01 1010.52 1010.06 1009.60 1009.14 1008.74 1008.30 1007.90 1007.69 1007.73 1007.91 1008.16 1008.35 1008.46 1008.55 1008.65 1008.70 1008.58 1008.28
1019.39 1019.38 1019.32 1019.23 1018.99 1018.91 1018.73 1019.00 1019.25 1019.21 1019.12 1018.82 1018.40 1017.93 1017.32 1016.53 1015.97 1015.34 1014.80 1014.26 1013.59 1012.50 1011.75 1011.42 1010.87 1010.39 1009.78 1009.14 1008.57 1008.02 1007.53 1007.24 1007.19 1007.28 1007.52 1007.78 1008.10 1008.43 1008.51 1008.66 1008.77 1008.71 1008.54
1019.73 1019.70 1019.66 1019.58 1019.47 1019.29 1019.38 1019.58 1019.63 1019.54 1019.37 1018.94 1018.47 1017.91 1017.29 1016.63 1016.02 1015.47 1014.92 1014.32 1013.59 1012.65 1011.61 1011.28 1010.75 1010.10 1009.42 1008.74 1008.01 1007.38 1007.08 1006.86 1006.80 1006.93 1007.26 1007.60 1007.96 1008.37 1008.61 1008.72 1008.92 1008.91 1008.81
1020.12 1020.04 1019.99 1019.88 1019.94 1019.94 1020.00 1020.08 1019.97 1019.79 1019.52 1018.98 1018.48 1017.83 1017.42 1016.86 1016.29 1015.78 1015.13 1014.46 1013.67 1012.78 1011.99 1011.35 1010.74 1009.91 1009.10 1008.40 1007.82 1007.34 1006.73 1006.42 1006.46 1006.79 1007.12 1007.57 1007.92 1008.30 1008.58 1008.80 1009.03 1009.13 1009.16
Wind_Speed
7 5 6 3 4 3 3 2 1 1 3 4 5 5 5 4 4 5 5 5 6 6 7 6 8 7 5 4 3 3 3 1 4 6 6 9 9 9 11 8 8 9 9
6 5 4 3 2 1 3 2 3 1 3 4 4 3 3 2 0 0 3 5 5 6 7 7 7 5 6 6 5 5 3 3 3 8 6 7 8 10 9 8 8 8 8
6 5 3 2 3 3 3 5 3 3 4 5 2 4 4 5 4 4 3 5 6 6 6 6 7 6 6 6 5 3 3 4 5 4 7 8 5 6 8 5 8 9 8
5 4 4 5 5 4 5 5 5 4 5 5 5 4 6 7 6 5 5 4 6 6 7 7 8 7 6 4 2 3 4 5 6 6 7 7 4 6 5 6 10 7 10
2 4 5 5 5 4 5 6 6 5 5 6 6 5 7 6 6 7 4 4 6 7 8 9 8 12 17 12 3 4 4 5 6 7 8 7 7 8 8 4 6 9 9
2 3 4 4 5 4 4 5 3 4 5 6 6 6 7 6 12 9 5 4 6 7 7 8 7 13 12 19 11 10 9 7 9 8 7 5 5 9 8 7 6 7 7
2 3 5 3 2 1 2 1 2 4 4 6 7 6 7 7 11 5 1 3 6 6 7 7 8 8 12 7 7 12 15 18 15 9 8 4 6 10 10 10 8 4 6
1 4 2 2 1 2 2 4 5 4 4 6 7 7 6 5 4 7 6 5 6 6 7 7 6 7 4 7 8 9 10 9 9 7 4 7 6 9 9 10 9 5 5
3 1 2 1 2 2 4 6 5 4 4 4 5 4 6 3 7 6 5 5 6 7 8 7 7 7 11 14 8 7 9 9 8 12 13 14 12 12 8 7 5 3 3
2 2 2 2 2 3 5 5 4 3 5 4 3 3 4 4 3 7 5 3 5 6 8 7 10 9 15 16 7 6 7 8 7 8 8 6 6 5 7 4 5 5 3
2 1 3 3 4 4 4 3 4 6 5 3 4 2 2 4 4 2 8 3 4 5 6 5 6 12 15 15 12 4 6 8 10 5 5 4 5 5 3 5 4 4 4
1 3 3 3 4 3 4 5 7 4 2 3 2 2 3 3 6 6 6 6 9 4 7 5 7 12 13 14 10 14 12 9 4 3 4 5 5 5 5 6 7 5 5
2 3 4 5 5 4 4 7 5 3 2 3 0 2 4 3 4 7 7 8 9 6 5 10 14 10 12 9 11 13 11 4 4 3 4 4 4 5 7 6 6 6 6
3 4 3 4 6 6 4 3 3 1 3 1 1 3 4 4 5 4 4 4 7 6 9 8 9 10 10 9 8 7 5 5 5 4 4 5 4 5 5 4 3 4 2
2 2 4 3 4 6 4 1 1 3 3 2 3 4 4 5 5 6 7 7 4 5 7 5 6 6 6 5 5 5 5 5 5 4 4 5 4 4 3 4 3 3 3
1 3 4 4 4 4 4 4 6 3 3 3 7 3 4 9 13 13 14 9 10 9 3 5 7 6 6 6 6 6 4 6 4 5 4 4 4 3 3 3 2 2 3
3 4 4 3 4 4 4 3 4 4 4 8 9 7 8 10 14 13 11 8 11 7 4 6 7 7 7 6 6 6 6 5 5 5 5 4 4 4 3 3 3 2 2
3 6 3 3 3 4 2 3 3 2 2 4 5 5 8 13 15 14 13 8 6 4 5 6 8 8 7 7 6 6 5 5 4 5 4 4 4 3 1 2 2 2 2
4 4 4 3 3 2 3 2 3 1 1 2 3 4 7 10 11 10 12 6 7 7 6 7 7 7 7 6 6 6 6 5 4 4 4 4 3 3 2 2 2 3 3
4 8 4 2 3 3 3 2 1 1 1 2 3 4 5 6 9 9 8 8 8 7 7 8 8 8 7 6 6 6 5 5 4 4 4 4 3 1 1 2 2 2 2
3 5 6 3 2 1 3 2 2 1 1 2 3 4 6 4 7 8 9 9 8 8 9 9 9 9 7 6 6 6 6 6 5 4 4 3 3 2 2 2 2 2 2
3 4 3 2 2 3 3 3 1 2 1 3 4 5 8 3 6 8 9 9 9 9 8 9 8 8 8 7 6 6 6 6 5 4 4 3 3 3 2 1 1 1 2
3 4 4 3 3 1 2 2 2 2 2 4 5 5 5 5 7 9 10 9 10 10 9 9 8 8 7 7 6 6 6 6 5 3 4 4 3 3 2 1 1 0 1
5 4 5 4 4 3 2 4 4 4 3 5 5 5 5 7 9 11 10 9 10 11 10 9 8 9 9 8 7 6 6 4 3 3 5 5 5 4 3 2 2 1 2
4 5 5 5 5 5 6 5 4 4 4 5 6 5 6 8 10 10 10 10 10 11 12 11 8 11 12 15 12 12 9 7 4 3 4 6 6 7 4 3 2 1 2
4 5 5 5 5 5 5 4 4 4 4 5 6 7 7 9 10 10 10 11 11 11 13 9 11 15 16 11 12 14 11 6 3 6 6 6 6 5 5 4 5 3 3
Wind_Direction
147 150 139 163 164 162 152 172 149 240 316 338 334 33 93 70 45 35 360 335 335 326 313 306 302 293 299 295 296 288 293 285 290 308 300 296 297 297 312 303 303 303 311
152 142 157 172 163 182 183 194 180 278 304 321 353 115 130 118 133 50 327 320 322 311 300 318 303 328 315 295 285 284 287 300 289 299 295 304 307 306 299 301 308 309 308
145 149 172 173 176 199 200 209 237 265 289 308 351 177 216 228 241 240 267 291 312 300 302 307 293 300 299 301 288 304 305 301 295 277 289 300 282 301 315 309 307 310 317
136 162 183 209 228 235 237 233 261 265 280 276 278 221 223 244 251 258 257 294 308 301 302 292 295 293 287 299 301 277 283 292 290 290 301 309 302 315 303 313 325 327 320
134 181 214 240 254 250 257 264 280 293 282 269 280 285 251 252 257 239 259 303 300 308 304 299 295 308 318 306 278 269 292 300 300 307 303 307 315 322 322 307 307 313 315
178 236 269 282 270 294 292 310 310 287 281 281 289 288 284 263 264 263 226 289 309 307 308 311 305 324 320 317 306 318 321 311 298 299 287 286 290 307 307 308 306 315 329
214 286 313 282 256 333 355 25 330 300 289 294 298 289 282 274 285 272 128 322 311 307 314 317 320 321 324 333 324 318 307 306 306 298 285 272 297 296 301 301 292 276 291
344 325 327 102 109 336 355 316 293 286 298 299 299 316 316 319 59 85 34 330 312 314 306 300 302 307 304 320 305 307 305 297 296 292 284 295 272 294 295 277 275 276 276
347 144 222 30 333 319 324 293 273 288 299 292 314 347 106 75 79 51 6 323 313 302 294 292 292 301 317 318 310 302 308 306 307 312 303 299 290 303 334 331 353 317 303
174 233 319 331 263 293 277 273 266 261 269 305 349 114 139 134 99 19 328 323 312 306 294 284 307 321 328 319 310 295 298 294 305 305 311 307 314 303 332 343 317 327 302
197 269 313 277 274 273 277 269 286 305 318 22 86 282 182 187 224 343 324 285 280 294 298 310 326 330 333 328 325 309 277 291 303 300 305 306 314 311 316 325 293 287 310
43 348 311 306 310 325 305 296 303 321 351 59 174 287 296 270 236 285 297 340 324 294 294 310 316 320 324 327 335 332 330 331 306 307 314 324 325 323 317 311 303 284 263
74 352 329 330 327 325 310 309 317 4 174 141 11 340 307 295 263 284 317 313 311 298 295 310 308 309 311 312 324 330 330 321 315 306 315 315 311 303 303 312 304 288 281
47 357 350 354 321 318 318 333 344 45 120 133 11 324 293 300 298 287 302 292 307 304 330 320 306 302 294 296 304 316 320 317 316 311 309 305 297 318 318 328 303 320 324
38 329 323 316 324 319 323 307 296 257 191 157 240 251 287 303 288 283 291 311 280 281 317 310 318 316 311 305 305 299 308 308 311 312 312 307 308 318 319 330 305 317 1
290 297 282 305 323 314 324 339 24 101 61 210 242 243 301 281 300 303 301 293 268 268 291 304 311 307 301 304 303 302 290 304 297 304 299 303 307 313 319 332 333 335 345
243 281 298 316 315 324 347 27 96 317 307 297 299 315 317 284 312 316 311 281 274 271 267 299 301 303 299 298 296 292 293 291 298 294 292 304 304 305 307 334 343 338 333
307 299 286 296 311 335 65 121 134 134 278 308 339 345 323 325 330 333 332 308 307 279 262 292 305 306 305 300 294 293 287 281 276 285 292 284 282 301 321 335 343 336 322
357 338 323 298 288 39 120 147 143 170 324 323 316 318 303 324 316 325 328 325 313 313 309 301 304 305 305 299 290 284 281 278 270 269 272 279 282 274 261 317 324 333 327
341 319 310 321 313 64 147 160 122 52 30 351 322 301 310 345 346 338 329 319 313 313 306 301 309 306 301 295 288 285 275 270 262 251 255 264 269 269 82 312 321 342 332
342 321 343 339 38 131 167 178 209 174 123 325 296 283 308 333 339 328 319 315 316 315 308 305 307 307 302 295 279 278 275 266 254 241 239 239 246 227 205 248 287 292 285
351 355 354 30 11 112 178 229 287 144 115 332 309 304 309 303 325 327 320 317 317 312 306 309 311 314 310 302 283 281 281 276 260 230 223 218 219 209 195 209 258 285 294
13 9 16 22 56 196 265 346 26 102 43 328 319 314 316 312 322 328 325 325 319 316 320 320 319 310 306 301 292 278 274 274 262 227 206 190 189 181 171 170 191 296 7
50 42 39 14 3 13 340 42 74 68 25 333 320 313 315 325 329 330 331 326 323 319 324 325 317 308 311 310 302 284 277 291 282 237 201 172 171 160 155 144 163 118 59
57 46 39 18 2 25 55 52 49 29 2 329 320 318 323 338 335 335 332 329 327 324 326 330 323 322 321 318 313 321 316 293 252 167 152 160 154 152 153 128 130 116 79
43 46 33 24 33 51 56 49 27 11 343 325 322 341 338 340 337 336 334 334 332 329 332 329 323 326 326 325 330 325 325 332 141 145 138 139 147 145 143 139 137 129 112